{"data":{"norad_id":65864,"intl_designator":"2025-223L","name":"STARLINK-35471","alt_names":[],"object_type":"PAYLOAD","status":"ACTIVE","operator":null,"country":"US","launch_date":"2025-10-03","launch_site_code":"AFWTR","launch_vehicle":null,"mission":null,"orbit_class":"UNKNOWN","rcs_meters":null,"size_class":null,"mass_kg":null,"dimensions":null,"purposes":["comms"],"wikipedia_slug":null,"has_3d_model":false,"image_url":null,"decayed_at":null,"tle_current":{"epoch":"2026-09-19T22:45:06.112224Z","epoch_age_seconds":153848,"freshness":"FRESH","line1":"1 65864U 25223L   26262.94798741  .00023059  00000+0  69108-3 0  9995","line2":"2 65864  53.1568 110.0096 0001570 209.7387 150.3527 15.34419625 53972","mean_motion":15.34419625,"eccentricity":0.000157,"inclination_deg":53.1568,"raan_deg":110.0096,"arg_perigee_deg":209.7387,"mean_anomaly_deg":150.3527,"bstar":0.00069108,"rev_number":5397,"period_min":93.846557782393,"perigee_km":461.57090843296,"apogee_km":463.71891395307,"semimajor_km":6840.781911193,"source":"CELESTRAK","updated_at":"2026-09-21T09:00:35.727277Z"}}}